Regional Weather Roundup
Issued by NWS Midland/Odessa, TX

Skip options and go directly to product.
Home | Oldest Version | Previous Version | Current Version | All | Graphics & Text | Save Text | Print | Product List | Glossary On

Skip product version selection by date and time.   
492
ASUS44 KMAF 161210
RWRMAF
MIDLAND AREA WEATHER ROUNDUP
NATIONAL WEATHER SERVICE MIDLAND TX
600 AM CST MON JAN 16 2017

...IN SOUTHWEST TEXAS AND SOUTHEAST NEW MEXICO...

CITY           SKY/WX    TMP DP  RH WIND       PRES   REMARKS
ALPINE         CLEAR     39  32  77 S13       30.04R WCI  31
ANDREWS        FAIR      34  34 100 SW3       29.93R
ARTESIA        FOG       34  34 100 CALM      29.93R VSB 1/4
BIG SPRING     PTCLDY    35  35  98 S6        29.96S WCI  30
CARLSBAD       FOG       35  35 100 NE7       29.92R VSB 3/4 WCI  29
DRYDEN           N/A     47  37  68 W12       29.94S
FORT STOCKTON  CLEAR     41  35  79 SW9       29.96R WCI  35
GUAD PASS      CLOUDY    34  34 100 W29       29.93R WCI  20
HOBBS          NOT AVBL
MARFA          CLEAR     35  32  88 NW13      30.00S WCI  26
MIDLAND AIRPK  CLEAR     40  36  86 W3        29.95R
MIDLAND INTL   CLEAR     40  35  83 SW8       29.94R WCI  34
ODESSA         CLEAR     38  34  85 SW5       29.94R WCI  34
PECOS          CLEAR     42  36  76 NW8       29.95S WCI  38
PRESIDIO       FAIR      40  34  79 N7        30.00R WCI  36
SEMINOLE       FOG       32  32 100 CALM      29.92S VSB 1/2
SNYDER         SNOW      35  35 100 S7        29.94R VSB 1/4 WCI  29
WINK           CLEAR     39  36  89 W9        29.92F WCI  33
$$
...OTHER STATIONS IN TEXAS...

CITY           SKY/WX    TMP DP  RH WIND       PRES   REMARKS
ABILENE        CLEAR     38  38 100 SW7       29.94S WCI  33
AMARILLO       CLOUDY    31  31 100 W10       29.85S WCI  22
AUSTIN         CLOUDY    63  62  97 CALM      29.93R
BROWNSVILLE    CLEAR     69  66  90 SE10      29.88R
CORPUS CHRISTI MOCLDY    67  66  97 SE6       29.90S
DALLAS FTW     FOG       50  50 100 S3        29.91S VSB 1/4
DEL RIO        CLEAR     44  42  93 NW3       29.96R
EL PASO        PTCLDY    41  33  73 SW6       29.97S WCI  37
HOUSTON INT    LGT RAIN  68  66  93 SE10      29.96F
LUBBOCK        CLOUDY    37  35  92 W12       29.89S WCI  29
SAN ANGELO     CLEAR     35  34  96 SW3       29.96S
SAN ANTONIO    CLOUDY    61  60  97 NW3       29.93R
WACO           FOG       50  50 100 CALM      29.94R VSB 1/4
WICHITA FALLS  NOT AVBL
$$
...OTHER LOCATIONS IN NEW MEXICO...

CITY           SKY/WX    TMP DP  RH WIND       PRES   REMARKS
ALAMAGORDO     CLEAR     37  37 100 SE13      29.97R WCI  29
ALBUQUERQUE    DRIZZLE   36  36 100 S3        29.92R
CANNON AFB     CLEAR     29  29 100 W7        29.87S WCI  22
CLOVIS         CLEAR     28  25  86 W7        29.87R WCI  21
HOLLOMAN AFB   CLEAR     38  38 100 SE9       29.98S WCI  32
ROSWELL        FOG       34  33  96 CALM      29.91S VSB 1/4
RUIDOSO        CLEAR     32  30  93 NW3       29.93S
SANTA FE       FOG       33  33 100 W6        29.87S VSB 1/4 WCI  28
TRUTH OR CONSE FOG       32  31  96 VRB5      29.94S VSB 3/4 WCI  27
TUCUMCARI      CLOUDY    28  27  96 SW7       29.85R WCI  21
$$